| time (UTC) | temp F | wind direction | speed MPH | gust MPH | rain 1hr in | rain 24hr in | rain mn in | humidity % | barometer mb |
| 20260507010027 | 44 | 197 | 8.0 | 0.0 | 0.00 | 0.00 | 0.01 | 83 | 1009.1 |
| 20260507004625 | 44 | 218 | 9.0 | 0.0 | 0.00 | 0.00 | 0.01 | 84 | 1009.0 |
| 20260507003026 | 44 | 197 | 9.0 | 0.0 | 0.00 | 0.00 | 0.01 | 84 | 1009.0 |
| 20260507001524 | 44 | 209 | 10.0 | 0.0 | 0.00 | 0.00 | 0.01 | 84 | 1008.8 |
| 20260507000022 | 45 | 238 | 7.0 | 0.0 | 0.00 | 0.00 | 0.00 | 84 | 1008.6 |
| 20260506234620 | 45 | 212 | 5.0 | 0.0 | 0.00 | 0.00 | 0.00 | 84 | 1008.2 |
| 20260506233022 | 45 | 230 | 5.0 | 0.0 | 0.00 | 0.00 | 0.00 | 84 | 1008.2 |
| 20260506231520 | 45 | 228 | 6.0 | 0.0 | 0.00 | 0.00 | 0.00 | 84 | 1008.1 |
| 20260506230019 | 45 | 333 | 8.0 | 0.0 | 0.00 | 0.00 | 0.00 | 84 | 1008.1 |
| 20260506224619 | 45 | 236 | 8.0 | 0.0 | 0.00 | 0.00 | 0.00 | 84 | 1008.1 |
| 20260506223019 | 45 | 333 | 8.0 | 0.0 | 0.00 | 0.00 | 0.00 | 84 | 1008.1 |
| 20260506221518 | 46 | 240 | 6.0 | 0.0 | 0.00 | 0.00 | 0.00 | 83 | 1008.1 |
| 20260506220030 | 46 | 211 | 4.0 | 0.0 | 0.00 | 0.00 | 0.00 | 82 | 1008.1 |
| 20260506214617 | 46 | 200 | 3.0 | 0.0 | 0.00 | 0.00 | 0.00 | 83 | 1007.9 |
| 20260506213028 | 46 | 211 | 3.0 | 0.0 | 0.00 | 0.00 | 0.00 | 83 | 1007.9 |
| 20260506211521 | 46 | 333 | 4.0 | 0.0 | 0.00 | 0.00 | 0.00 | 83 | 1007.8 |
| 20260506210023 | 45 | 182 | 3.0 | 0.0 | 0.00 | 0.00 | 0.00 | 83 | 1007.7 |
| 20260506204622 | 46 | 333 | 1.0 | 0.0 | 0.00 | 0.00 | 0.00 | 84 | 1007.9 |
| 20260506203028 | 46 | 333 | 1.0 | 0.0 | 0.00 | 0.00 | 0.00 | 84 | 1007.8 |
| 20260506201523 | 45 | 51 | 0.0 | 0.0 | 0.00 | 0.00 | 0.00 | 84 | 1007.8 |
| 20260506200023 | 45 | 51 | 1.0 | 0.0 | 0.00 | 0.00 | 0.00 | 84 | 1007.8 |
| 20260506194622 | 45 | 76 | 4.0 | 0.0 | 0.00 | 0.00 | 0.00 | 84 | 1007.7 |
| 20260506193019 | 45 | 73 | 3.0 | 0.0 | 0.00 | 0.00 | 0.00 | 84 | 1007.7 |
| 20260506191517 | 45 | 24 | 0.0 | 0.0 | 0.00 | 0.00 | 0.00 | 84 | 1007.9 |
| 20260506190023 | 44 | 25 | 2.0 | 0.0 | 0.00 | 0.00 | 0.00 | 84 | 1008.0 |
| 20260506184614 | 44 | 24 | 4.0 | 0.0 | 0.00 | 0.00 | 0.00 | 83 | 1007.8 |
| 20260506183015 | 44 | 359 | 5.0 | 0.0 | 0.00 | 0.00 | 0.00 | 83 | 1007.9 |
| 20260506181516 | 44 | 346 | 5.0 | 0.0 | 0.00 | 0.00 | 0.00 | 82 | 1007.9 |
| 20260506180013 | 44 | 17 | 5.0 | 0.0 | 0.00 | 0.00 | 0.00 | 82 | 1007.8 |
| 20260506174613 | 44 | 38 | 5.0 | 0.0 | 0.00 | 0.00 | 0.00 | 81 | 1007.7 |
| 20260506173013 | 44 | 356 | 5.0 | 0.0 | 0.00 | 0.00 | 0.00 | 81 | 1007.6 |
| 20260506171517 | 44 | 356 | 4.0 | 0.0 | 0.00 | 0.00 | 0.00 | 80 | 1007.5 |
| 20260506170011 | 44 | 3 | 4.0 | 0.0 | 0.00 | 0.00 | 0.00 | 79 | 1007.5 |
| 20260506164610 | 43 | 69 | 5.0 | 0.0 | 0.00 | 0.00 | 0.00 | 78 | 1007.6 |
| 20260506163016 | 43 | 42 | 6.0 | 0.0 | 0.00 | 0.00 | 0.00 | 78 | 1007.7 |
| 20260506161514 | 43 | 16 | 7.0 | 0.0 | 0.00 | 0.00 | 0.00 | 76 | 1007.8 |
| 20260506160014 | 43 | 7 | 7.0 | 0.0 | 0.00 | 0.00 | 1.22 | 76 | 1008.0 |
| 20260506154614 | 42 | 352 | 6.0 | 0.0 | 0.00 | 0.00 | 1.21 | 73 | 1008.2 |
| 20260506153011 | 42 | 346 | 7.0 | 0.0 | 0.00 | 0.00 | 1.21 | 72 | 1008.1 |
| 20260506151509 | 42 | 352 | 7.0 | 0.0 | 0.00 | 0.00 | 1.20 | 72 | 1008.0 |
| 20260506150008 | 42 | 13 | 6.0 | 0.0 | 0.00 | 0.00 | 1.19 | 71 | 1007.9 |
| 20260506144610 | 42 | 357 | 5.0 | 0.0 | 0.00 | 0.00 | 1.17 | 71 | 1007.8 |
| 20260506143009 | 43 | 352 | 5.0 | 0.0 | 0.00 | 0.00 | 1.17 | 70 | 1007.8 |
| 20260506141508 | 42 | 19 | 5.0 | 0.0 | 0.00 | 0.00 | 1.15 | 70 | 1007.9 |
| 20260506140009 | 42 | 19 | 4.0 | 0.0 | 0.00 | 0.00 | 1.13 | 70 | 1008.0 |
| 20260506134607 | 42 | 17 | 4.0 | 0.0 | 0.00 | 0.00 | 1.12 | 72 | 1007.8 |
| 20260506133010 | 42 | 26 | 5.0 | 0.0 | 0.00 | 0.00 | 1.11 | 72 | 1007.7 |
| 20260506131509 | 42 | 15 | 4.0 | 0.0 | 0.00 | 0.00 | 1.10 | 71 | 1007.9 |
| 20260506130013 | 42 | 17 | 4.0 | 0.0 | 0.00 | 0.00 | 1.08 | 72 | 1008.0 |
| 20260506124610 | 42 | 23 | 3.0 | 0.0 | 0.00 | 0.00 | 1.05 | 72 | 1007.8 |
| 20260506123009 | 42 | 28 | 4.0 | 0.0 | 0.00 | 0.00 | 1.05 | 73 | 1007.8 |
| 20260506121508 | 42 | 38 | 3.0 | 0.0 | 0.00 | 0.00 | 1.03 | 73 | 1007.9 |
| 20260506120020 | 42 | 27 | 3.0 | 0.0 | 0.00 | 0.00 | 1.02 | 73 | 1007.9 |
| 20260506114609 | 42 | 36 | 2.0 | 0.0 | 0.00 | 0.00 | 0.99 | 74 | 1008.0 |
| 20260506113010 | 42 | 30 | 3.0 | 0.0 | 0.00 | 0.00 | 0.99 | 74 | 1008.1 |
| 20260506111509 | 42 | 7 | 4.0 | 0.0 | 0.00 | 0.00 | 0.97 | 74 | 1008.3 |
| 20260506110012 | 42 | 13 | 5.0 | 0.0 | 0.00 | 0.00 | 0.95 | 73 | 1008.1 |
| 20260506104606 | 42 | 5 | 2.0 | 0.0 | 0.00 | 0.00 | 0.92 | 73 | 1008.1 |
| 20260506103010 | 42 | 5 | 3.0 | 0.0 | 0.00 | 0.00 | 0.91 | 73 | 1007.9 |
| 20260506101510 | 42 | 333 | 3.0 | 0.0 | 0.00 | 0.00 | 0.89 | 74 | 1008.2 |
| 20260506100006 | 43 | 349 | 3.0 | 0.0 | 0.00 | 0.00 | 0.87 | 74 | 1008.0 |
| 20260506094615 | 43 | 348 | 2.0 | 0.0 | 0.00 | 0.00 | 0.82 | 73 | 1007.9 |
| 20260506093007 | 43 | 348 | 1.0 | 0.0 | 0.00 | 0.00 | 0.82 | 73 | 1007.8 |
| 20260506091508 | 43 | 346 | 3.0 | 0.0 | 0.00 | 0.00 | 0.80 | 74 | 1007.6 |
| 20260506090014 | 43 | 328 | 3.0 | 0.0 | 0.00 | 0.00 | 0.78 | 74 | 1007.7 |
| 20260506084604 | 43 | 338 | 3.0 | 0.0 | 0.00 | 0.00 | 0.74 | 74 | 1008.1 |
| 20260506083005 | 43 | 173 | 2.0 | 0.0 | 0.00 | 0.00 | 0.74 | 74 | 1008.1 |
| 20260506081504 | 43 | 151 | 4.0 | 0.0 | 0.00 | 0.00 | 0.72 | 74 | 1008.0 |
| 20260506073004 | 43 | 177 | 3.0 | 0.0 | 0.00 | 0.00 | 0.68 | 75 | 1007.8 |
| 20260506071504 | 44 | 167 | 6.0 | 0.0 | 0.00 | 0.00 | 0.67 | 75 | 1007.6 |
| 20260506061502 | 44 | 162 | 3.0 | 0.0 | 0.00 | 0.00 | 0.56 | 77 | 1007.9 |
| 20260506044601 | 45 | 190 | 4.0 | 0.0 | 0.00 | 0.00 | 0.43 | 79 | 1008.5 |
| 20260506043001 | 45 | 186 | 5.0 | 0.0 | 0.00 | 0.00 | 0.43 | 79 | 1008.5 |
| 20260506041501 | 45 | 171 | 5.0 | 0.0 | 0.00 | 0.00 | 0.43 | 79 | 1008.2 |
| 20260506040100 | 44 | 175 | 4.0 | 0.0 | 0.00 | 0.00 | 0.42 | 80 | 1008.2 |
| 20260506034604 | 45 | 161 | 5.0 | 0.0 | 0.00 | 0.00 | 0.40 | 81 | 1007.8 |
| 20260506033002 | 45 | 159 | 4.0 | 0.0 | 0.00 | 0.00 | 0.40 | 81 | 1008.0 |
| 20260506031600 | 45 | 211 | 6.0 | 0.0 | 0.00 | 0.00 | 0.37 | 81 | 1008.6 |
| 20260506024610 | 45 | 178 | 5.0 | 0.0 | 0.00 | 0.00 | 0.32 | 82 | 1007.9 |
| 20260506023103 | 45 | 182 | 5.0 | 0.0 | 0.00 | 0.00 | 0.32 | 83 | 1007.9 |
| 20260506021558 | 45 | 177 | 4.0 | 0.0 | 0.00 | 0.00 | 0.30 | 83 | 1007.7 |
| 20260506020052 | 46 | 185 | 4.0 | 0.0 | 0.00 | 0.00 | 0.28 | 83 | 1007.9 |
| 20260506014549 | 46 | 161 | 4.0 | 0.0 | 0.00 | 0.00 | 0.26 | 84 | 1007.1 |
| 20260506013059 | 46 | 167 | 4.0 | 0.0 | 0.00 | 0.00 | 0.26 | 84 | 1007.1 |
| 20260506011615 | 46 | 195 | 2.0 | 0.0 | 0.00 | 0.00 | 0.23 | 84 | 1006.9 |